Weather History for KPMP - November, 2013

Change the Weather History Date:

Sunday, November 10, 2013

  Actual Average Record
Temperature  
Mean Temperature 80 °F -  
Max Temperature 82 °F 83 °F 89 °F (1987)
Min Temperature 78 °F 66 °F 47 °F (1956)
Cooling Degree Days 15    
Growing Degree Days 30 (Base 50)    
Moisture  
Dew Point 69 °F    
Average Humidity 70    
Maximum Humidity 79    
Minimum Humidity 62    
Precipitation  
Precipitation 0.00 in - - ()
Sea Level Pressure  
Sea Level Pressure 30.08 in    
Wind  
Wind Speed 15 mph (ENE)    
Max Wind Speed 17 mph    
Max Gust Speed 25 mph    
Visibility 10 miles    
Events      
Averages and records for this station are not official NWS values.
T = Trace of Precipitation, MM = Missing Value Source: NWS Daily Summary

Daily Weather History Graph

Daily Weather History Graph

Search for Another Location

Airport or City:

Trip Planner

Search our weather history database for the weather conditions in past years. The results will help you decide how hot, cold, wet, or windy it might be!

Date:

Astronomy

Nov. 10, 2013 Rise Set
Actual Time 6:35 AM EST 5:32 PM EST
Civil Twilight 6:11 AM EST 5:56 PM EST
Nautical Twilight 5:43 AM EST 6:24 PM EST
Astronomical Twilight 5:16 AM EST 6:52 PM EST
Moon 1:00 PM EST (11/10) No Moon Set
Length of Visible Light 11h 45m
Length of Day
10h 57m
First Quarter, 55% of the Moon is Illuminated
Nov 10
First Quarter
Nov 17
Full
Nov 25
Last Quarter
Dec 2
New
Dec 9
First Quarter

Hourly Weather History & Observations

Time (EST) Temp. Heat Index Dew Point Humidity Pressure Visibility Wind Dir Wind Speed Gust Speed Precip Events Conditions
12:53 AM 78.1 °F - 71.1 °F 79% 30.09 in 10.0 mi ENE 17.3 mph - 0.00 in   Overcast
1:09 AM 78.8 °F - 71.6 °F 78% 30.08 in 10.0 mi ENE 17.3 mph 24.2 mph N/A   Overcast
1:40 AM 78.8 °F - 69.8 °F 74% 30.07 in 10.0 mi ENE 15.0 mph 24.2 mph N/A   Overcast
1:53 AM 78.1 °F - 70.0 °F 76% 30.07 in 10.0 mi ENE 15.0 mph 23.0 mph N/A   Overcast
2:22 AM 78.8 °F - 69.8 °F 74% 30.06 in 10.0 mi ENE 16.1 mph 25.3 mph N/A   Overcast
2:30 AM 78.8 °F - 71.6 °F 78% 30.06 in 10.0 mi ENE 16.1 mph 24.2 mph N/A   Overcast
2:40 AM 78.8 °F - 69.8 °F 74% 30.06 in 10.0 mi ENE 15.0 mph - N/A   Overcast
2:53 AM 78.1 °F - 70.0 °F 76% 30.07 in 10.0 mi ENE 13.8 mph 21.9 mph N/A   Overcast
3:08 AM 78.8 °F - 69.8 °F 74% 30.06 in 10.0 mi ENE 15.0 mph 23.0 mph N/A   Overcast
3:53 AM 78.1 °F - 70.0 °F 76% 30.06 in 10.0 mi ENE 13.8 mph - N/A   Overcast
4:29 AM 78.8 °F - 69.8 °F 74% 30.06 in 10.0 mi ENE 15.0 mph 20.7 mph N/A   Overcast
4:44 AM 78.8 °F - 69.8 °F 74% 30.06 in 10.0 mi ENE 13.8 mph - N/A   Overcast
4:53 AM 78.1 °F - 69.1 °F 74% 30.07 in 10.0 mi East 15.0 mph - N/A   Overcast
5:01 AM 78.8 °F - 69.8 °F 74% 30.07 in 10.0 mi ENE 15.0 mph 24.2 mph N/A   Overcast
5:53 AM 78.1 °F - 66.9 °F 68% 30.09 in 10.0 mi East 13.8 mph - N/A   Overcast
6:53 AM 78.1 °F - 68.0 °F 71% 30.10 in 10.0 mi ENE 15.0 mph - N/A   Overcast
7:53 AM 79.0 °F - 69.1 °F 72% 30.12 in 10.0 mi ENE 13.8 mph 20.7 mph N/A   Mostly Cloudy
8:53 AM 81.0 °F 84.4 °F 70.0 °F 69% 30.12 in 10.0 mi ENE 15.0 mph - N/A   Overcast
9:53 AM 81.0 °F 84.1 °F 69.1 °F 67% 30.13 in 10.0 mi ENE 13.8 mph 20.7 mph N/A   Overcast
10:53 AM 82.9 °F 86.5 °F 69.1 °F 63% 30.12 in 10.0 mi ENE 12.7 mph - N/A   Overcast
11:53 AM 82.0 °F 85.5 °F 69.1 °F 65% 30.10 in 10.0 mi NE 13.8 mph - N/A   Overcast
12:53 PM 82.0 °F 85.5 °F 69.1 °F 65% 30.08 in 10.0 mi NE 10.4 mph - N/A   Mostly Cloudy
1:53 PM 82.9 °F 86.5 °F 69.1 °F 63% 30.07 in 10.0 mi NE 15.0 mph - N/A   Scattered Clouds
2:53 PM 82.0 °F 84.9 °F 68.0 °F 62% 30.06 in 10.0 mi NE 12.7 mph - N/A   Mostly Cloudy
3:53 PM 81.0 °F 84.1 °F 69.1 °F 67% 30.06 in 10.0 mi NE 10.4 mph - N/A   Overcast
4:53 PM 80.1 °F 82.3 °F 66.9 °F 64% 30.07 in 10.0 mi NE 13.8 mph - N/A   Mostly Cloudy
5:53 PM 79.0 °F - 66.9 °F 66% 30.07 in 10.0 mi NE 11.5 mph - N/A   Mostly Cloudy
6:53 PM 79.0 °F - 66.9 °F 66% 30.07 in 10.0 mi NE 11.5 mph - N/A   Clear
7:53 PM 79.0 °F - 66.0 °F 64% 30.08 in 10.0 mi NE 11.5 mph - N/A   Clear
8:53 PM 78.1 °F - 68.0 °F 71% 30.09 in 10.0 mi ENE 9.2 mph - N/A   Partly Cloudy
9:53 PM 78.1 °F - 66.9 °F 68% 30.10 in 10.0 mi ENE 8.1 mph - N/A   Clear
10:53 PM 78.1 °F - 66.9 °F 68% 30.09 in 10.0 mi NE 10.4 mph - N/A   Clear
11:53 PM 78.1 °F - 66.9 °F 68% 30.09 in 10.0 mi NE 8.1 mph - N/A   Partly Cloudy